Probability
0 0 0 0 0 0 0 0 0 0 0 0 0 0 0 0 0 0 0 0 0 0 0 0 0 0 0 0 0 0 0 0 0 0 0 0 0 0 0 0 0 0 0
0 0 0 0 0 0 0 0 0 0 0 0 0 0 0 0 0 0 0 0 0 0 0 0 0 0 0 0 0 0 0 0 0 0 0 0 0 0 0 0 0 0 0
0 0 0 0 0 0 0 0 0 0 0 0 0 0 0 0 0 0 0 0 0 0 0 0 0 0 0 0 0 0 0 0 0 0 0 0 0 0 0 0 0 0 0
0 0 0 0 0 0 0 0 0 0 0 0 0 0 0 0 0 0 0 0 0 0 0 0 0 0 0 0 0 0 0 0 0 0 0 0 0 0 0 0 0 0 0
0 0 0 0 0 0 0 0 0 0 0 0 0 0 0 0 0 0 0 0 0 0 0 0 0 0 0 0 0 0 0 0 0 0 0 0 0 0 0 0 0 0 0
0 0 0 0 0 0 0 0 0 0 0 0 0 0 0 0 0 0 0 0 0 0 0 0 0 0 0 0 0 0 0 0 0 0 0 0 0 0 0 0 0 0 0
0 0 0 0 0 0 0 0 0 0 0 0 0 0 0 0 0 0 0 0 0 0 0 0 0 0 0 0 0 0 0 0 0 0 0 0 0 0 0 0 0 0 0
0 0 0 0 0 0 0 0 0 0 0 0 0 0 0 0 0 0 0 0 0 0 0 0 0 0 0 0 0 0 0 0 0 0 0 0 0 0 0 0 0 0 0
0 0 0 0 0 0 0 0 0 0 0 0 0 0 0 0 0 0 0 0 0 0 0 0 0 0 0 0 0 0 0 0 0 0 0 0 0 0 0 0 0 0 0
0 0 0 0 0 0 0 0 0 0 0 0 0 0 0 0 0 0 0 0 0 0 0 0 0 0 0 0 0 0 0 0 0 0 0 0 0 0 0 0 0 0 0
0 0 0 0 0 0 0 0 0 0 0 0 0 0 0 0 0 0 0 0 0 0 0 0 0 0 0 0 0 0 0 0 0 0 0 0 0 0 0 0 0 0 0
0 0 0 0 0 0 0 0 0 0 0 0 0 0 0 0 0 0 0 0 0 0 0 0 0 0 0 0 0 0 0 0 0 0 0 0 0 0 0 0 0 0 0
0 0 0 0 0 0 0 0 0 0 0 0 0 0 0 0 0 0 0 0 0 0 0 0 0 0 0 0 0 0 0 0 0 0 0 0 0 0 0 0 0 0 0
0 0 0 0 0 0 0 0 0 0 0 0 0 0 0 0 0 0 0 0 0 0 0 0 0 0 0 0 0 0 0 0 0 0 0 0 0 0 0 0 0 0 0
0 0 0 0 0 0 0 0 0 0 0 0 0 0 0 0 0 0 0 0 0 0 0 0 0 0 0 0 0 0 0 0 0 0 0 0 0 0 0 0 0 0 0
0 0 0 0 0 0 0 0 0 0 0 0 0 0 0 0 0 0 0 0 0 0 0 0 0 0 0 0 0 0 0 0 0 0 0 0 0 0 0 0 0 0 0
0 0 0 0 0 0 0 0 0 0 0 0 0 0 0 0 0 0 0 0 0 0 0 0 0 0 0 0 0 0 0 0 0 0 0 0 0 0 0 0 0 0 0
0 0 0 0 0 0 0 0 0 0 0 0 0 0 0 0 0 0 0 0 0 0 0 0 0 0 0 0 0 0 0 0 0 0 0 0 0 0 0 0 0 0 0
0 0 0 0 0 0 0 0 0 0 0 0 0 0 0 0 0 0 0 0 0 0 0 0 0 0 0 0 0 0 0 0 0 0 0 0 0 0 0 0 0 0 0
0 0 0 0 0 0 0 0 0 0 0 0 0 0 0 0 0 0 0 0 0 0 0 0 0 0 0 0 0 0 0 0 0 0 0 0 0 0 0 0 0 0 0
0 0 0 0 0 0 0 0 0 0 0 0 0 0 0 0 0 0 0 0 0 0 0 0 0 0 0 0 0 0 0 0 0 0 0 0 0 0 0 0 0 0 0
0 0 0 0 0 0 0 0 0 0 0 0 0 0 0 0 0 0 0 0 0 0 0 0 0 0 0 0 0 0 0 0 0 0 0 0 0 0 0 0 0 0 0
0 0 0 0 0 0 0 0 0 0 0 0 0 0 0 0 0 0 0 0 0 0 0 0 0 0 0 0 0 0 0 0 0 0 0 0 0 0 0 0 0 0 0
0 0 0 0 0 0 0 0 0 0 0 0 0 0 0 0 0 0 0 0 0 0 0 0 0 0 0 0 0 0 0 0 0 0 0 0 0 0 0 0 0 0 0
0 0 0 0 0 0 0 0 0 0 0 0 0 0 0 0 0 0 0 0 0 0 0 0 0 0 0 0 0 0 0 0 0 0 0 0 0 0 0 0 0 0 0
0 0 0 0 0 0 0 0 0 0 0 0 0 0 0 0 0 0 0 0 0 0 0 0 0 0 0 0 0 0 0 0 0 0 0 0 0 0 0 0 0 0 0
Height
5562 5557 5553 5549 5545 5542 5539 5537 5534 5532 5530 5529 5529 5529 5530 5531 5531 5533 5534 5537 5539 5543 5547 5551 5556 5561 5566 5573 5578 5584 5590 5595 5601 5608 5613 5618 5622 5626 5630 5633 5636 5639 5641
5547 5542 5538 5535 5531 5528 5525 5522 5519 5518 5517 5516 5516 5516 5517 5518 5519 5520 5522 5524 5526 5530 5534 5539 5544 5549 5554 5561 5567 5573 5579 5584 5589 5596 5602 5606 5611 5615 5618 5622 5626 5629 5631
5533 5529 5524 5520 5517 5513 5511 5508 5506 5504 5504 5503 5503 5504 5505 5506 5507 5508 5509 5511 5514 5518 5523 5527 5532 5537 5543 5549 5556 5562 5567 5573 5578 5584 5590 5595 5600 5604 5608 5613 5616 5619 5621
5520 5515 5511 5507 5503 5500 5497 5494 5492 5491 5491 5491 5491 5492 5493 5494 5495 5496 5498 5499 5503 5507 5512 5517 5522 5527 5533 5539 5545 5551 5557 5563 5568 5574 5579 5585 5590 5594 5599 5603 5607 5609 5612
5507 5502 5498 5493 5490 5487 5484 5481 5480 5479 5479 5479 5480 5481 5481 5482 5484 5485 5486 5489 5493 5498 5502 5507 5513 5518 5524 5530 5536 5542 5548 5554 5559 5564 5570 5575 5581 5586 5591 5595 5598 5600 5602
5494 5490 5485 5481 5478 5475 5472 5470 5469 5468 5468 5468 5469 5470 5471 5472 5473 5474 5476 5480 5485 5489 5494 5499 5504 5510 5516 5522 5528 5534 5541 5546 5552 5556 5562 5568 5573 5578 5582 5586 5589 5591 5594
5482 5478 5474 5470 5467 5463 5461 5459 5458 5457 5458 5458 5459 5459 5460 5461 5463 5465 5467 5471 5477 5482 5487 5492 5497 5503 5508 5514 5521 5527 5533 5538 5544 5549 5555 5560 5565 5569 5573 5577 5580 5583 5586
5471 5467 5463 5459 5456 5453 5450 5449 5448 5448 5448 5449 5449 5450 5450 5452 5454 5457 5459 5464 5469 5474 5480 5485 5491 5496 5502 5508 5514 5520 5526 5532 5537 5542 5547 5552 5556 5560 5564 5568 5571 5575 5578
5459 5456 5452 5448 5446 5443 5441 5440 5439 5439 5440 5440 5441 5441 5442 5444 5446 5449 5453 5457 5462 5468 5473 5478 5484 5490 5496 5502 5508 5514 5520 5525 5530 5535 5539 5543 5548 5552 5556 5560 5563 5566 5569
5448 5445 5442 5439 5436 5435 5433 5432 5432 5432 5432 5432 5433 5434 5435 5438 5440 5443 5448 5452 5457 5462 5467 5473 5478 5484 5490 5496 5502 5508 5514 5519 5524 5528 5533 5537 5541 5545 5549 5552 5556 5559 5562
5437 5434 5431 5429 5427 5426 5425 5425 5424 5424 5425 5426 5427 5428 5430 5432 5435 5438 5443 5448 5453 5457 5463 5468 5473 5479 5486 5492 5497 5503 5508 5513 5517 5522 5527 5531 5535 5539 5542 5546 5549 5552 5554
5426 5423 5422 5420 5418 5417 5417 5417 5417 5418 5419 5420 5421 5424 5426 5428 5432 5435 5439 5443 5448 5453 5459 5464 5470 5475 5482 5487 5493 5498 5502 5507 5511 5516 5521 5525 5529 5533 5536 5539 5542 5544 5547
5415 5413 5412 5411 5409 5409 5409 5410 5411 5411 5413 5414 5417 5419 5422 5425 5428 5431 5435 5439 5444 5450 5455 5461 5466 5471 5477 5482 5488 5492 5497 5502 5507 5512 5516 5520 5524 5527 5530 5533 5535 5537 5539
5406 5404 5403 5402 5402 5402 5402 5403 5404 5406 5408 5410 5412 5415 5418 5421 5425 5428 5432 5436 5441 5446 5451 5456 5462 5467 5472 5478 5483 5488 5494 5498 5503 5507 5511 5515 5518 5521 5524 5527 5529 5531 5533
5397 5396 5395 5395 5395 5395 5396 5397 5398 5400 5402 5405 5408 5411 5414 5417 5421 5425 5429 5433 5438 5443 5448 5453 5458 5464 5469 5474 5480 5485 5490 5494 5499 5503 5506 5510 5513 5516 5519 5521 5524 5525 5527
5388 5388 5387 5387 5388 5389 5390 5391 5393 5395 5397 5400 5403 5406 5410 5414 5417 5421 5425 5430 5435 5440 5445 5450 5456 5461 5466 5472 5477 5482 5486 5491 5495 5499 5502 5505 5509 5511 5514 5516 5518 5520 5521
5380 5380 5379 5380 5381 5382 5384 5385 5387 5390 5392 5395 5398 5402 5406 5410 5414 5418 5422 5427 5432 5437 5442 5448 5453 5458 5464 5469 5474 5478 5483 5487 5491 5494 5498 5501 5504 5506 5509 5511 5513 5514 5515
5373 5372 5372 5372 5374 5375 5377 5379 5382 5385 5387 5390 5393 5397 5401 5405 5410 5414 5419 5424 5429 5434 5439 5445 5450 5456 5461 5466 5471 5475 5479 5483 5487 5490 5493 5496 5499 5502 5504 5506 5508 5509 5511
5366 5365 5365 5366 5367 5369 5372 5374 5377 5380 5383 5386 5389 5393 5397 5401 5406 5410 5415 5420 5426 5431 5436 5442 5447 5453 5458 5463 5467 5472 5476 5480 5483 5486 5489 5492 5495 5498 5500 5502 5503 5505 5506
5360 5359 5359 5360 5361 5363 5366 5369 5372 5375 5378 5381 5385 5388 5393 5397 5402 5407 5412 5417 5422 5428 5434 5439 5445 5450 5455 5460 5464 5469 5473 5477 5480 5483 5486 5488 5491 5494 5496 5498 5500 5501 5502
5353 5353 5353 5354 5356 5358 5360 5363 5367 5370 5373 5377 5380 5384 5389 5394 5398 5404 5409 5414 5419 5425 5431 5436 5442 5447 5453 5457 5461 5466 5470 5473 5477 5480 5482 5485 5488 5490 5493 5494 5496 5497 5498
5347 5347 5348 5349 5351 5353 5355 5359 5362 5366 5370 5373 5377 5381 5386 5391 5396 5401 5406 5411 5417 5422 5428 5434 5440 5445 5450 5454 5459 5463 5467 5471 5474 5477 5480 5482 5485 5487 5489 5491 5492 5493 5494
5341 5342 5343 5344 5346 5348 5351 5355 5359 5362 5366 5370 5374 5378 5383 5388 5393 5399 5404 5410 5415 5420 5426 5432 5437 5442 5447 5452 5456 5460 5464 5468 5471 5474 5477 5480 5482 5484 5486 5487 5488 5489 5490
5335 5336 5338 5339 5341 5344 5348 5352 5355 5359 5363 5367 5371 5376 5381 5386 5391 5397 5402 5408 5413 5419 5424 5430 5435 5440 5445 5450 5454 5458 5462 5466 5469 5472 5475 5478 5480 5482 5483 5484 5485 5486 5487
5330 5332 5333 5335 5338 5341 5345 5349 5353 5356 5361 5365 5369 5374 5379 5384 5389 5395 5400 5406 5412 5418 5423 5428 5434 5439 5443 5448 5452 5456 5460 5464 5467 5470 5473 5475 5477 5479 5480 5481 5482 5483 5484
5326 5328 5329 5332 5335 5338 5342 5346 5350 5354 5359 5363 5367 5372 5377 5383 5388 5394 5399 5405 5411 5417 5422 5427 5432 5437 5442 5447 5451 5455 5459 5462 5465 5468 5471 5473 5475 5477 5478 5479 5480 5481 5482
Wind_Speed
56 56 55 56 55 54 53 53 53 52 51 49 47 46 45 45 46 47 47 48 47 46 47 46 46 48 49 49 49 49 48 48 49 47 48 46 44 43 44 44 44 43 43
55 55 55 55 53 52 52 52 51 49 48 47 45 44 43 43 43 43 44 45 46 45 44 43 43 45 47 47 47 47 46 45 45 45 45 44 43 42 43 42 42 42 41
54 53 53 52 51 51 51 50 49 47 45 44 43 42 41 41 41 41 41 42 43 43 42 41 41 43 44 45 45 46 45 42 41 43 43 42 41 41 41 41 41 39 39
53 53 52 51 49 49 49 47 46 45 43 42 41 40 40 40 39 39 38 38 39 40 40 39 39 40 41 42 43 44 43 41 39 40 40 40 39 39 39 38 39 37 36
53 52 50 50 49 48 46 44 43 42 40 39 39 38 38 38 38 37 36 36 37 37 37 38 37 38 39 40 40 41 41 40 39 39 38 37 37 36 36 36 35 35 35
50 49 48 47 45 45 43 41 41 39 38 37 37 36 36 36 36 35 34 34 36 35 34 36 36 37 37 37 38 38 38 36 35 36 36 36 35 34 34 35 33 33 33
48 46 45 44 44 43 42 40 38 36 35 35 37 36 34 33 33 32 32 32 33 33 33 33 34 35 34 35 36 36 35 33 33 33 33 33 33 33 33 33 32 31 31
46 46 45 43 41 40 38 36 35 33 33 34 34 33 32 31 31 30 29 30 30 30 31 32 33 33 34 34 34 34 33 31 31 31 31 30 30 30 31 30 29 30 30
45 44 42 41 39 37 35 33 32 31 31 32 31 30 29 28 28 29 28 28 28 28 29 31 32 32 31 31 32 31 30 29 29 29 28 27 27 28 29 27 27 28 28
43 41 40 39 37 35 32 30 29 29 29 29 28 26 25 25 25 27 28 26 26 26 27 29 30 30 30 29 29 28 27 27 27 26 26 26 27 27 27 25 26 26 26
41 39 38 37 35 32 30 29 28 27 26 25 24 23 22 22 23 24 26 26 25 25 26 27 28 29 29 29 28 27 26 26 25 25 25 24 25 24 24 24 24 25 25
39 38 36 35 33 30 28 27 26 25 23 22 22 21 20 21 21 22 24 24 22 23 23 25 27 28 27 26 26 26 26 26 25 24 23 22 23 22 21 21 22 23 24
37 35 33 32 30 28 26 24 23 22 21 20 19 20 19 20 21 21 22 22 21 21 22 23 24 25 25 25 25 25 25 25 24 23 22 21 21 21 20 20 20 21 23
35 33 31 29 27 25 24 23 21 19 18 18 18 19 20 20 20 21 22 22 22 22 22 22 22 22 23 24 24 24 23 22 22 21 20 20 20 20 20 20 19 19 20
32 29 28 26 25 23 23 21 20 18 18 18 19 19 20 20 19 20 20 21 21 21 22 21 21 21 23 23 23 23 22 21 20 19 18 19 20 20 20 19 18 18 18
29 28 26 25 23 22 21 20 19 18 18 18 20 20 20 20 19 20 20 21 22 22 22 21 20 20 22 23 23 23 22 21 19 18 17 19 20 20 19 18 17 17 17
27 26 25 23 22 21 20 20 18 17 18 19 20 20 20 20 21 20 21 21 22 22 22 21 20 21 22 22 22 22 20 19 17 17 18 18 18 17 17 17 17 16 17
25 23 22 21 20 20 20 19 19 18 18 19 21 21 21 21 22 22 21 21 22 22 22 21 21 21 22 22 21 20 19 17 17 17 17 17 16 16 15 15 15 14 15
22 20 19 19 19 19 20 19 19 18 18 19 20 21 21 21 21 22 21 21 22 22 21 21 21 21 22 21 19 18 17 16 16 16 16 15 15 15 14 13 12 12 13
20 19 18 17 18 19 20 20 19 18 18 18 20 21 21 21 21 22 22 22 22 23 23 22 22 21 21 20 18 17 17 16 15 15 14 14 14 13 13 12 12 12 12
19 18 17 17 17 18 19 18 18 18 18 18 20 21 22 22 22 22 23 23 23 24 23 23 22 22 21 20 19 18 17 15 14 14 13 13 13 12 12 12 11 11 11
18 17 17 16 16 17 18 17 16 17 18 18 20 22 22 22 22 23 23 23 24 24 24 24 23 22 21 20 18 17 15 14 13 12 12 12 12 11 11 10 10 11 11
16 16 16 15 15 16 17 17 17 17 17 18 21 22 23 23 22 23 24 23 23 24 24 24 23 22 20 19 17 16 15 14 13 12 12 12 11 11 10 10 10 10 10
15 15 14 14 14 15 16 17 17 17 17 19 20 21 22 23 24 24 24 24 24 24 24 23 22 21 20 19 17 16 16 14 14 13 12 11 10 9 9 8 9 9 9
13 13 13 13 14 15 16 17 18 18 19 20 21 22 22 23 24 25 24 25 24 24 23 23 22 21 20 19 18 17 15 14 14 12 11 10 9 9 8 7 7 7 7
13 12 12 13 14 15 17 18 18 19 20 20 21 22 23 24 24 25 24 25 25 24 23 22 21 20 20 19 17 17 15 14 12 11 10 9 9 8 7 6 5 4 4
Wind_Direction
296 294 292 291 289 287 286 284 283 280 278 276 275 272 270 266 265 263 262 256 255 254 252 252 250 247 244 243 243 245 248 249 250 248 247 247 249 251 253 257 259 263 264
297 295 293 290 288 286 285 285 283 280 277 275 273 272 270 266 264 263 261 256 253 251 250 249 248 246 243 241 243 245 246 247 248 247 246 246 249 251 253 256 260 262 263
297 295 293 291 288 286 286 284 282 279 276 273 272 271 268 265 264 263 261 257 252 249 248 247 245 244 241 241 242 243 243 244 246 247 244 246 248 251 253 255 258 259 261
297 295 293 291 289 288 287 284 281 277 274 273 271 270 268 264 263 261 259 256 249 246 246 244 243 242 240 241 242 241 240 243 245 244 244 246 248 250 252 254 256 258 259
296 296 293 291 290 289 287 284 280 276 274 272 271 270 269 264 261 260 257 252 246 245 244 242 241 239 238 240 240 238 239 241 243 243 244 246 247 249 251 253 256 257 259
296 295 294 293 291 288 285 281 278 274 273 271 270 269 269 263 260 257 253 246 244 244 243 241 238 237 238 238 236 236 236 240 242 242 242 243 244 247 248 251 255 258 259
296 295 295 293 291 288 285 280 278 276 273 271 270 270 267 262 258 252 248 242 241 240 238 235 233 233 235 235 233 233 235 239 240 240 240 242 244 245 247 250 254 256 258
295 294 295 293 291 288 284 279 278 275 273 272 271 270 265 260 252 248 244 239 237 236 234 233 231 231 233 232 231 232 235 237 237 236 236 239 241 243 246 250 252 254 257
294 293 292 292 291 289 283 278 276 274 272 271 270 267 262 256 248 245 240 235 233 231 230 229 229 230 230 229 229 231 233 233 232 235 235 239 242 244 245 246 251 254 259
293 292 290 289 289 287 282 278 276 274 272 270 267 264 257 250 245 241 237 235 231 229 227 227 227 228 226 225 226 230 231 230 232 235 236 239 242 245 243 245 251 256 261
291 291 290 288 287 285 279 276 275 274 271 267 262 258 250 245 241 236 234 234 232 229 225 225 226 225 225 228 228 228 229 230 234 235 237 240 241 243 242 246 252 257 261
290 289 288 286 284 281 276 273 272 271 268 262 255 250 242 238 233 231 230 230 230 225 222 223 223 223 225 225 224 227 229 230 232 233 234 237 238 239 242 248 252 256 262
289 288 286 284 281 278 274 271 270 266 261 253 247 241 235 231 228 229 228 225 224 222 222 223 223 223 223 222 224 227 227 227 227 230 231 232 235 239 243 249 255 259 264
288 286 284 281 278 274 271 267 264 258 251 245 239 235 231 229 228 226 225 224 223 221 220 220 221 220 218 220 221 221 220 221 225 228 229 232 235 239 244 250 257 261 266
288 285 281 277 274 269 265 262 258 251 246 241 235 230 226 224 226 223 221 219 219 220 219 217 216 215 213 214 215 215 216 217 221 224 229 232 235 240 244 250 254 261 267
286 282 278 275 270 263 258 256 253 249 244 240 233 227 225 224 221 219 219 219 219 218 216 213 211 212 213 213 212 212 212 216 221 227 231 235 236 237 242 245 253 260 266
284 281 276 270 263 256 252 250 248 245 240 234 228 224 224 222 220 220 219 217 214 213 211 210 211 211 210 208 209 211 214 218 224 230 231 232 235 237 239 245 253 258 263
284 279 272 265 257 253 249 245 244 241 235 230 224 220 220 220 219 218 215 211 210 209 209 209 208 207 205 204 206 209 212 217 224 230 230 231 233 234 239 245 251 256 263
279 276 269 262 255 249 245 241 241 237 231 226 222 217 215 214 213 211 208 207 206 205 204 203 203 202 202 203 205 209 213 218 224 228 230 231 230 232 236 244 251 259 266
275 271 266 261 255 249 241 236 234 231 227 224 220 214 209 206 204 203 203 203 202 201 201 200 200 201 202 203 205 209 214 217 223 226 228 228 227 227 234 245 254 263 270
271 267 263 259 252 244 237 232 228 225 222 220 213 208 204 201 200 200 201 200 199 198 199 199 200 201 200 202 204 209 213 216 220 222 223 223 226 229 235 245 256 265 273
268 265 261 257 249 238 230 226 223 222 218 214 205 199 197 196 196 196 197 196 194 194 194 196 199 200 200 201 203 208 211 214 214 213 213 217 223 226 234 245 258 269 277
265 263 257 250 239 229 224 221 217 215 213 206 200 197 195 196 196 195 194 192 191 192 193 195 196 197 198 199 202 206 204 203 205 207 207 212 220 228 239 251 263 274 277
261 257 251 241 231 223 218 213 210 208 204 199 197 196 194 195 195 194 192 190 190 190 190 192 194 195 196 198 199 194 192 196 201 203 206 213 223 230 240 254 265 272 271
255 249 241 230 221 214 210 206 202 199 197 194 193 193 193 192 191 190 188 187 187 187 188 190 192 193 193 190 188 187 189 194 198 202 209 215 224 229 240 254 262 263 265
246 239 228 217 211 206 202 199 196 193 192 191 191 190 189 187 186 185 185 185 184 184 186 187 188 188 187 186 186 188 192 195 198 202 209 214 219 222 233 244 248 245 249